Location: Bon Acre
(42.6442°N, 73.5758°W)
Time: 15:02:37
(UTC+00:00)

USA 215 - Pass Details

Date: 14 December 2025
Orbit: 1098 x 1109 km, 123.0° (Epoch: 10 January)

Event Time Altitude Azimuth Distance (km) Brightness Sun altitude
Exits shadow 21:49:37 - 49° (NE) 3,414 5.2 -5.4°
Reaches altitude 10° 21:50:59 10° 43° (NE) 2,965 4.9 -5.6°
Maximum altitude 21:56:19 28° 348° (NNW) 1,938 4.5 -6.5°
Drops below altitude 10° 22:01:40 10° 293° (WNW) 2,957 6.2 -7.4°
Sets 22:04:29 0° 282° (WNW) 3,913 7.1 -7.8°
